This demonstration page uses our WeatherBlox Daily Observations layout. Learn more.

Left ArrowRight Arrow

34.16533, -84.80231

Hourly Observations for March 6, 2020

Temp ( °F °C ) Dew Point ( °F °C ) Humidity (%) Winds ( mph kmh ) Pressure ( in mb ) Visibility ( mi km ) Precip ( " mm )
12:00 am 00:00 Mostly Cloudy with Mist and Fog 42 5.6 40 4.4 92 92 Calm 30.12 1020 1 1 0.00 0.00
12:28 am 00:28 Cloudy with Mist and Fog 41 5 39 3.9 93 93 Calm 30.11 1020 2 3 0.00 0.00
12:36 am 00:36 Cloudy with Mist and Fog 41 5 39 3.9 93 93 Calm 30.11 1020 2 3 0.00 0.00
12:53 am 00:53 Cloudy with Mist and Fog 41 5 39 3.9 93 93 Calm 30.07 1018 3 4 0.00 0.00
1:14 am 01:14 Mostly Cloudy with Mist and Fog 41 5 39 3.9 93 93 Calm 30.10 1019 1 2 0.00 0.00
1:53 am 01:53 Partly Cloudy with Mist and Fog 40 4.4 38 3.3 93 93 Calm 30.06 1018 2 3 0.00 0.00
1:58 am 01:58 Mostly Cloudy with Mist and Fog 41 5 39 3.9 93 93 Calm 30.09 1019 3 4 0.00 0.00
2:17 am 02:17 Mostly Cloudy with Mist and Fog 40 4.4 38 3.3 93 93 Calm 30.10 1019 2 2 0.00 0.00
2:48 am 02:48 Mostly Cloudy with Mist and Fog 39 4 37 3 93 93 Calm 30.10 1019 1 1 0.00 0.00
2:53 am 02:53 Mostly Cloudy with Mist and Fog 39 3.9 37 2.8 93 93 Calm 30.06 1018 1 2 0.00 0.00
3:16 am 03:16 Mostly Cloudy with Fog 39 3.9 37 2.8 93 93 Calm 30.09 1019 1 1 0.00 0.00
3:46 am 03:46 Cloudy with Mist and Fog 40 4.4 39 3.9 97 97 Calm 30.09 1019 1 2 0.00 0.00
3:53 am 03:53 Cloudy with Mist and Fog 41 5 40 4.4 96 96 Calm 30.05 1018 2 3 0.00 0.00
3:58 am 03:58 Mostly Cloudy with Mist and Fog 42 5.6 40 4.4 92 92 Calm 30.08 1019 1 1 0.00 0.00
4:30 am 04:30 Cloudy with Mist and Fog 42 5.6 41 5 96 96 Calm 30.09 1019 2 3 0.00 0.00
4:34 am 04:34 Cloudy with Mist and Fog 43 6.1 41 5 93 93 Calm 30.08 1019 3 5 0.00 0.00
4:53 am 04:53 Cloudy with Mist and Fog 43 6.1 41 5 93 93 Calm 30.06 1018 3 5 0.00 0.00
5:00 am 05:00 Cloudy with Mist and Fog 43 6.1 41 5 93 93 Calm 30.10 1019 3 4 0.00 0.00
5:12 am 05:12 Cloudy with Mist and Fog 43 6.1 41 5 93 93 Calm 30.10 1019 2 3 0.00 0.00
5:19 am 05:19 Cloudy with Mist and Fog 43 6.1 41 5 93 93 Calm 30.10 1019 2 3 0.00 0.00
5:26 am 05:26 Cloudy with Mist and Fog 42 5.6 40 4.4 92 92 Calm 30.10 1019 1 2 0.00 0.00
5:49 am 05:49 Mostly Cloudy with Mist and Fog 41 5 39 4 93 93 Calm 30.11 1020 3 5 0.00 0.00
5:53 am 05:53 Partly Cloudy with Mist and Fog 41 5 39 3.9 93 93 Calm 30.08 1019 3 5 0.00 0.00
6:53 am 06:53 Clear with Mist and Fog 41 5 39 3.9 93 93 Calm 30.11 1020 6 10 0.00 0.00
7:53 am 07:53 Sunny 43 6.1 41 5 93 93 Calm 30.13 1020 10 16 0.00 0.00
8:53 am 08:53 Sunny 49 9.4 40 4.4 71 71 Calm 30.15 1021 10 16 0.00 0.00
9:53 am 09:53 Sunny 52 11.1 32 0 47 47 VRB 6 9 30.18 1022 10 16 0.00 0.00
10:53 am 10:53 Mostly Sunny 52 11.1 32 0 47 47 NNW 12 19 30.19 1023 10 16 0.00 0.00
11:53 am 11:53 Sunny 54 12.2 30 -1.1 40 40 VRB 6 9 30.21 1023 10 16 0.00 0.00
12:53 pm 12:53 Sunny 57 13.9 32 0 39 39 undefined N/A 30.21 1023 10 16 0.00 0.00
1:53 pm 13:53 Sunny 58 14.4 30 -1.1 35 35 VRB 5 7 30.19 1022 10 16 0.00 0.00
2:53 pm 14:53 Sunny 59 15 28 -2.2 31 31 undefined N/A 30.18 1022 10 16 0.00 0.00
3:53 pm 15:53 Sunny 57 13.9 27 -2.8 32 32 NNW 16 26 30.19 1023 10 16 0.00 0.00
4:53 pm 16:53 Sunny 56 13.3 24 -4.4 29 29 NNW 10 17 30.21 1023 10 16 0.00 0.00
5:53 pm 17:53 Sunny 53 11.7 24 -4.4 32 32 VRB 6 9 30.23 1024 10 16 0.00 0.00
6:53 pm 18:53 Clear 50 10 25 -3.9 38 38 NNW 9 15 30.27 1025 10 16 0.00 0.00
7:53 pm 19:53 Clear 48 8.9 24 -4.4 39 39 NNW 5 7 30.31 1027 10 16 0.00 0.00
8:53 pm 20:53 Clear 45 7.2 25 -3.9 46 46 VRB 7 11 30.34 1027 10 16 0.00 0.00
9:53 pm 21:53 Clear 44 6.7 25 -3.9 47 47 VRB 6 9 30.36 1028 10 16 0.00 0.00
10:53 pm 22:53 Clear 42 5.6 26 -3.3 53 53 N 7 11 30.38 1029 10 16 0.00 0.00
11:53 pm 23:53 Clear 41 5 25 -3.9 53 53 N 7 11 30.38 1029 10 16 0.00 0.00

Powered by AerisWeather